owner,sensor,date,latitude,longitude,air_temperature,qcFlag 
COMPS,ioos:station:USF.COMPS:TAR:1,2010-02-01T00:00:00Z,28.1560,-82.7580,9.95,1111122 
COMPS,ioos:station:USF.COMPS:TAR:1,2010-02-01T00:06:00Z,28.1560,-82.7580,9.95,1111122 
COMPS,ioos:station:USF.COMPS:TAR:1,2010-02-01T00:12:00Z,28.1560,-82.7580,9.87,1111122 
COMPS,ioos:station:USF.COMPS:TAR:1,2010-02-01T00:18:00Z,28.1560,-82.7580,9.72,1111122 
COMPS,ioos:station:USF.COMPS:TAR:1,2010-02-01T00:24:00Z,28.1560,-82.7580,9.7,1111122 
COMPS,ioos:station:USF.COMPS:TAR:1,2010-02-01T00:30:00Z,28.1560,-82.7580,9.68,1111122 
COMPS,ioos:station:USF.COMPS:TAR:1,2010-02-01T00:36:00Z,28.1560,-82.7580,9.65,1111122 
COMPS,ioos:station:USF.COMPS:TAR:1,2010-02-01T00:42:00Z,28.1560,-82.7580,9.57,1111122 
COMPS,ioos:station:USF.COMPS:TAR:1,2010-02-01T00:48:00Z,28.1560,-82.7580,9.55,1111122 
COMPS,ioos:station:USF.COMPS:TAR:1,2010-02-01T00:54:00Z,28.1560,-82.7580,9.47,1111122 
COMPS,ioos:station:USF.COMPS:TAR:1,2010-02-01T01:00:00Z,28.1560,-82.7580,9.41,1111122 
COMPS,ioos:station:USF.COMPS:TAR:1,2010-02-01T01:06:00Z,28.1560,-82.7580,9.37,1111122 
COMPS,ioos:station:USF.COMPS:TAR:1,2010-02-01T01:12:00Z,28.1560,-82.7580,9.27,1111122 
COMPS,ioos:station:USF.COMPS:TAR:1,2010-02-01T01:18:00Z,28.1560,-82.7580,9.16,1111122 
COMPS,ioos:station:USF.COMPS:TAR:1,2010-02-01T01:24:00Z,28.1560,-82.7580,9.14,1111122 
COMPS,ioos:station:USF.COMPS:TAR:1,2010-02-01T01:30:00Z,28.1560,-82.7580,9.03,1111122 
COMPS,ioos:station:USF.COMPS:TAR:1,2010-02-01T01:36:00Z,28.1560,-82.7580,8.98,1111122 
COMPS,ioos:station:USF.COMPS:TAR:1,2010-02-01T01:42:00Z,28.1560,-82.7580,8.88,1111122 
COMPS,ioos:station:USF.COMPS:TAR:1,2010-02-01T01:48:00Z,28.1560,-82.7580,8.87,1111122 
COMPS,ioos:station:USF.COMPS:TAR:1,2010-02-01T01:54:00Z,28.1560,-82.7580,8.82,1111122 
COMPS,ioos:station:USF.COMPS:TAR:1,2010-02-01T02:00:00Z,28.1560,-82.7580,8.72,1111122 
COMPS,ioos:station:USF.COMPS:TAR:1,2010-02-01T02:06:00Z,28.1560,-82.7580,8.68,1111122 
COMPS,ioos:station:USF.COMPS:TAR:1,2010-02-01T02:12:00Z,28.1560,-82.7580,8.63,1111122 
COMPS,ioos:station:USF.COMPS:TAR:1,2010-02-01T02:18:00Z,28.1560,-82.7580,8.6,1111122 
COMPS,ioos:station:USF.COMPS:TAR:1,2010-02-01T02:24:00Z,28.1560,-82.7580,8.64,1111122 
COMPS,ioos:station:USF.COMPS:TAR:1,2010-02-01T02:30:00Z,28.1560,-82.7580,8.56,1111122 
COMPS,ioos:station:USF.COMPS:TAR:1,2010-02-01T02:36:00Z,28.1560,-82.7580,8.51,1111122 
COMPS,ioos:station:USF.COMPS:TAR:1,2010-02-01T02:42:00Z,28.1560,-82.7580,8.47,1111122 
COMPS,ioos:station:USF.COMPS:TAR:1,2010-02-01T02:48:00Z,28.1560,-82.7580,8.46,1111122 
COMPS,ioos:station:USF.COMPS:TAR:1,2010-02-01T02:54:00Z,28.1560,-82.7580,8.39,1111122 
COMPS,ioos:station:USF.COMPS:TAR:1,2010-02-01T03:00:00Z,28.1560,-82.7580,8.35,1111122 
COMPS,ioos:station:USF.COMPS:TAR:1,2010-02-01T03:06:00Z,28.1560,-82.7580,8.32,1111122 
COMPS,ioos:station:USF.COMPS:TAR:1,2010-02-01T03:12:00Z,28.1560,-82.7580,8.31,1111122 
COMPS,ioos:station:USF.COMPS:TAR:1,2010-02-01T03:18:00Z,28.1560,-82.7580,8.2,1111122 
COMPS,ioos:station:USF.COMPS:TAR:1,2010-02-01T03:24:00Z,28.1560,-82.7580,8.21,1111122 
COMPS,ioos:station:USF.COMPS:TAR:1,2010-02-01T03:30:00Z,28.1560,-82.7580,8.19,1111122 
COMPS,ioos:station:USF.COMPS:TAR:1,2010-02-01T03:36:00Z,28.1560,-82.7580,8.12,1111122 
COMPS,ioos:station:USF.COMPS:TAR:1,2010-02-01T03:42:00Z,28.1560,-82.7580,8.06,1111122 
COMPS,ioos:station:USF.COMPS:TAR:1,2010-02-01T03:48:00Z,28.1560,-82.7580,8.07,1111122 
COMPS,ioos:station:USF.COMPS:TAR:1,2010-02-01T03:54:00Z,28.1560,-82.7580,8.05,1111122 
COMPS,ioos:station:USF.COMPS:TAR:1,2010-02-01T04:00:00Z,28.1560,-82.7580,8.04,1111122 
COMPS,ioos:station:USF.COMPS:TAR:1,2010-02-01T04:06:00Z,28.1560,-82.7580,8.05,1111122 
COMPS,ioos:station:USF.COMPS:TAR:1,2010-02-01T04:12:00Z,28.1560,-82.7580,8.03,1111122 
COMPS,ioos:station:USF.COMPS:TAR:1,2010-02-01T04:18:00Z,28.1560,-82.7580,8.04,1111122 
COMPS,ioos:station:USF.COMPS:TAR:1,2010-02-01T04:24:00Z,28.1560,-82.7580,8.06,1111122 
COMPS,ioos:station:USF.COMPS:TAR:1,2010-02-01T04:30:00Z,28.1560,-82.7580,7.95,1111122 
COMPS,ioos:station:USF.COMPS:TAR:1,2010-02-01T04:36:00Z,28.1560,-82.7580,8.04,1111122 
COMPS,ioos:station:USF.COMPS:TAR:1,2010-02-01T04:42:00Z,28.1560,-82.7580,8.03,1111122 
COMPS,ioos:station:USF.COMPS:TAR:1,2010-02-01T04:48:00Z,28.1560,-82.7580,8.02,1111122 
COMPS,ioos:station:USF.COMPS:TAR:1,2010-02-01T04:54:00Z,28.1560,-82.7580,7.96,1111122 
COMPS,ioos:station:USF.COMPS:TAR:1,2010-02-01T05:00:00Z,28.1560,-82.7580,7.94,1111122 
COMPS,ioos:station:USF.COMPS:TAR:1,2010-02-01T05:06:00Z,28.1560,-82.7580,7.93,1111122 
COMPS,ioos:station:USF.COMPS:TAR:1,2010-02-01T05:12:00Z,28.1560,-82.7580,7.91,1111122 
COMPS,ioos:station:USF.COMPS:TAR:1,2010-02-01T05:18:00Z,28.1560,-82.7580,7.91,1111122 
COMPS,ioos:station:USF.COMPS:TAR:1,2010-02-01T05:24:00Z,28.1560,-82.7580,7.96,1111122 
COMPS,ioos:station:USF.COMPS:TAR:1,2010-02-01T05:30:00Z,28.1560,-82.7580,7.96,1111122 
COMPS,ioos:station:USF.COMPS:TAR:1,2010-02-01T05:36:00Z,28.1560,-82.7580,7.94,1111122 
COMPS,ioos:station:USF.COMPS:TAR:1,2010-02-01T05:42:00Z,28.1560,-82.7580,7.94,1111122 
COMPS,ioos:station:USF.COMPS:TAR:1,2010-02-01T05:48:00Z,28.1560,-82.7580,7.94,1111122 
COMPS,ioos:station:USF.COMPS:TAR:1,2010-02-01T05:54:00Z,28.1560,-82.7580,7.99,1111122 
COMPS,ioos:station:USF.COMPS:TAR:1,2010-02-01T06:00:00Z,28.1560,-82.7580,8.03,1111122 
COMPS,ioos:station:USF.COMPS:TAR:1,2010-02-01T06:06:00Z,28.1560,-82.7580,8.05,1111122 
COMPS,ioos:station:USF.COMPS:TAR:1,2010-02-01T06:12:00Z,28.1560,-82.7580,8.12,1111122 
COMPS,ioos:station:USF.COMPS:TAR:1,2010-02-01T06:18:00Z,28.1560,-82.7580,8.06,1111122 
COMPS,ioos:station:USF.COMPS:TAR:1,2010-02-01T06:24:00Z,28.1560,-82.7580,8.13,1111122 
COMPS,ioos:station:USF.COMPS:TAR:1,2010-02-01T06:30:00Z,28.1560,-82.7580,8.05,1111122 
COMPS,ioos:station:USF.COMPS:TAR:1,2010-02-01T06:36:00Z,28.1560,-82.7580,8.05,1111122 
COMPS,ioos:station:USF.COMPS:TAR:1,2010-02-01T06:42:00Z,28.1560,-82.7580,8.13,1111122 
COMPS,ioos:station:USF.COMPS:TAR:1,2010-02-01T06:48:00Z,28.1560,-82.7580,8.15,1111122 
COMPS,ioos:station:USF.COMPS:TAR:1,2010-02-01T06:54:00Z,28.1560,-82.7580,8.18,1111122 
COMPS,ioos:station:USF.COMPS:TAR:1,2010-02-01T07:00:00Z,28.1560,-82.7580,8.2,1111122 
COMPS,ioos:station:USF.COMPS:TAR:1,2010-02-01T07:06:00Z,28.1560,-82.7580,8.25,1111122 
COMPS,ioos:station:USF.COMPS:TAR:1,2010-02-01T07:12:00Z,28.1560,-82.7580,8.33,1111122 
COMPS,ioos:station:USF.COMPS:TAR:1,2010-02-01T07:18:00Z,28.1560,-82.7580,8.35,1111122 
COMPS,ioos:station:USF.COMPS:TAR:1,2010-02-01T07:24:00Z,28.1560,-82.7580,8.36,1111122 
COMPS,ioos:station:USF.COMPS:TAR:1,2010-02-01T07:30:00Z,28.1560,-82.7580,8.45,1111122 
COMPS,ioos:station:USF.COMPS:TAR:1,2010-02-01T07:36:00Z,28.1560,-82.7580,8.44,1111122 
COMPS,ioos:station:USF.COMPS:TAR:1,2010-02-01T07:42:00Z,28.1560,-82.7580,8.45,1111122 
COMPS,ioos:station:USF.COMPS:TAR:1,2010-02-01T07:48:00Z,28.1560,-82.7580,8.46,1111122 
COMPS,ioos:station:USF.COMPS:TAR:1,2010-02-01T07:54:00Z,28.1560,-82.7580,8.53,1111122 
COMPS,ioos:station:USF.COMPS:TAR:1,2010-02-01T08:00:00Z,28.1560,-82.7580,8.58,1111122 
COMPS,ioos:station:USF.COMPS:TAR:1,2010-02-01T08:06:00Z,28.1560,-82.7580,8.66,1111122 
COMPS,ioos:station:USF.COMPS:TAR:1,2010-02-01T08:12:00Z,28.1560,-82.7580,8.77,1111122 
COMPS,ioos:station:USF.COMPS:TAR:1,2010-02-01T08:18:00Z,28.1560,-82.7580,8.81,1111122 
COMPS,ioos:station:USF.COMPS:TAR:1,2010-02-01T08:24:00Z,28.1560,-82.7580,8.9,1111122 
COMPS,ioos:station:USF.COMPS:TAR:1,2010-02-01T08:30:00Z,28.1560,-82.7580,8.99,1111122 
COMPS,ioos:station:USF.COMPS:TAR:1,2010-02-01T08:36:00Z,28.1560,-82.7580,9.0,1111122 
COMPS,ioos:station:USF.COMPS:TAR:1,2010-02-01T08:42:00Z,28.1560,-82.7580,9.03,1111122 
COMPS,ioos:station:USF.COMPS:TAR:1,2010-02-01T08:48:00Z,28.1560,-82.7580,9.1,1111122 
COMPS,ioos:station:USF.COMPS:TAR:1,2010-02-01T08:54:00Z,28.1560,-82.7580,9.14,1111122 
COMPS,ioos:station:USF.COMPS:TAR:1,2010-02-01T09:00:00Z,28.1560,-82.7580,9.17,1111122 
COMPS,ioos:station:USF.COMPS:TAR:1,2010-02-01T09:06:00Z,28.1560,-82.7580,9.28,1111122 
COMPS,ioos:station:USF.COMPS:TAR:1,2010-02-01T09:12:00Z,28.1560,-82.7580,9.41,1111122 
COMPS,ioos:station:USF.COMPS:TAR:1,2010-02-01T09:18:00Z,28.1560,-82.7580,9.49,1111122 
COMPS,ioos:station:USF.COMPS:TAR:1,2010-02-01T09:24:00Z,28.1560,-82.7580,9.59,1111122 
COMPS,ioos:station:USF.COMPS:TAR:1,2010-02-01T09:30:00Z,28.1560,-82.7580,9.67,1111122 
COMPS,ioos:station:USF.COMPS:TAR:1,2010-02-01T09:36:00Z,28.1560,-82.7580,9.68,1111122 
COMPS,ioos:station:USF.COMPS:TAR:1,2010-02-01T09:42:00Z,28.1560,-82.7580,9.76,1111122 
COMPS,ioos:station:USF.COMPS:TAR:1,2010-02-01T09:48:00Z,28.1560,-82.7580,9.84,1111122 
COMPS,ioos:station:USF.COMPS:TAR:1,2010-02-01T09:54:00Z,28.1560,-82.7580,9.89,1111122 
COMPS,ioos:station:USF.COMPS:TAR:1,2010-02-01T10:00:00Z,28.1560,-82.7580,9.95,1111122 
COMPS,ioos:station:USF.COMPS:TAR:1,2010-02-01T10:06:00Z,28.1560,-82.7580,9.96,1111122 
COMPS,ioos:station:USF.COMPS:TAR:1,2010-02-01T10:12:00Z,28.1560,-82.7580,10.0,1111122 
COMPS,ioos:station:USF.COMPS:TAR:1,2010-02-01T10:18:00Z,28.1560,-82.7580,10.06,1111122 
COMPS,ioos:station:USF.COMPS:TAR:1,2010-02-01T10:24:00Z,28.1560,-82.7580,10.13,1111122 
COMPS,ioos:station:USF.COMPS:TAR:1,2010-02-01T10:30:00Z,28.1560,-82.7580,10.11,1111122 
COMPS,ioos:station:USF.COMPS:TAR:1,2010-02-01T10:36:00Z,28.1560,-82.7580,10.21,1111122 
COMPS,ioos:station:USF.COMPS:TAR:1,2010-02-01T10:42:00Z,28.1560,-82.7580,10.37,1111122 
COMPS,ioos:station:USF.COMPS:TAR:1,2010-02-01T10:48:00Z,28.1560,-82.7580,10.59,1111122 
COMPS,ioos:station:USF.COMPS:TAR:1,2010-02-01T10:54:00Z,28.1560,-82.7580,10.57,1111122 
COMPS,ioos:station:USF.COMPS:TAR:1,2010-02-01T11:00:00Z,28.1560,-82.7580,10.6,1111122 
COMPS,ioos:station:USF.COMPS:TAR:1,2010-02-01T11:06:00Z,28.1560,-82.7580,10.74,1111122 
COMPS,ioos:station:USF.COMPS:TAR:1,2010-02-01T11:12:00Z,28.1560,-82.7580,10.89,1111122 
COMPS,ioos:station:USF.COMPS:TAR:1,2010-02-01T11:18:00Z,28.1560,-82.7580,10.98,1111122 
COMPS,ioos:station:USF.COMPS:TAR:1,2010-02-01T11:24:00Z,28.1560,-82.7580,11.12,1111122 
COMPS,ioos:station:USF.COMPS:TAR:1,2010-02-01T11:30:00Z,28.1560,-82.7580,11.18,1111122 
COMPS,ioos:station:USF.COMPS:TAR:1,2010-02-01T11:36:00Z,28.1560,-82.7580,11.26,1111122 
COMPS,ioos:station:USF.COMPS:TAR:1,2010-02-01T11:42:00Z,28.1560,-82.7580,11.48,1111122 
COMPS,ioos:station:USF.COMPS:TAR:1,2010-02-01T11:48:00Z,28.1560,-82.7580,11.5,1111122 
COMPS,ioos:station:USF.COMPS:TAR:1,2010-02-01T11:54:00Z,28.1560,-82.7580,11.51,1111122 
COMPS,ioos:station:USF.COMPS:TAR:1,2010-02-01T12:00:00Z,28.1560,-82.7580,11.65,1111122 
COMPS,ioos:station:USF.COMPS:TAR:1,2010-02-01T12:06:00Z,28.1560,-82.7580,11.72,1111122 
COMPS,ioos:station:USF.COMPS:TAR:1,2010-02-01T12:12:00Z,28.1560,-82.7580,11.73,1111122 
COMPS,ioos:station:USF.COMPS:TAR:1,2010-02-01T12:18:00Z,28.1560,-82.7580,12.1,1111122 
COMPS,ioos:station:USF.COMPS:TAR:1,2010-02-01T12:24:00Z,28.1560,-82.7580,11.96,1111122 
COMPS,ioos:station:USF.COMPS:TAR:1,2010-02-01T12:30:00Z,28.1560,-82.7580,11.94,1111122 
COMPS,ioos:station:USF.COMPS:TAR:1,2010-02-01T12:36:00Z,28.1560,-82.7580,12.0,1111122 
COMPS,ioos:station:USF.COMPS:TAR:1,2010-02-01T12:42:00Z,28.1560,-82.7580,12.13,1111122 
COMPS,ioos:station:USF.COMPS:TAR:1,2010-02-01T12:48:00Z,28.1560,-82.7580,12.25,1111122 
COMPS,ioos:station:USF.COMPS:TAR:1,2010-02-01T12:54:00Z,28.1560,-82.7580,12.31,1111122 
COMPS,ioos:station:USF.COMPS:TAR:1,2010-02-01T13:00:00Z,28.1560,-82.7580,12.43,1111122 
COMPS,ioos:station:USF.COMPS:TAR:1,2010-02-01T13:06:00Z,28.1560,-82.7580,12.54,1111122 
COMPS,ioos:station:USF.COMPS:TAR:1,2010-02-01T13:12:00Z,28.1560,-82.7580,12.56,1111122 
COMPS,ioos:station:USF.COMPS:TAR:1,2010-02-01T13:18:00Z,28.1560,-82.7580,12.57,1111122 
COMPS,ioos:station:USF.COMPS:TAR:1,2010-02-01T13:24:00Z,28.1560,-82.7580,12.59,1111122 
COMPS,ioos:station:USF.COMPS:TAR:1,2010-02-01T13:30:00Z,28.1560,-82.7580,12.89,1111122 
COMPS,ioos:station:USF.COMPS:TAR:1,2010-02-01T13:36:00Z,28.1560,-82.7580,12.76,1111122 
COMPS,ioos:station:USF.COMPS:TAR:1,2010-02-01T13:42:00Z,28.1560,-82.7580,12.65,1111122 
COMPS,ioos:station:USF.COMPS:TAR:1,2010-02-01T13:48:00Z,28.1560,-82.7580,12.76,1111122 
COMPS,ioos:station:USF.COMPS:TAR:1,2010-02-01T13:54:00Z,28.1560,-82.7580,12.95,1111122 
COMPS,ioos:station:USF.COMPS:TAR:1,2010-02-01T14:00:00Z,28.1560,-82.7580,13.02,1111122 
COMPS,ioos:station:USF.COMPS:TAR:1,2010-02-01T14:06:00Z,28.1560,-82.7580,12.97,1111122 
COMPS,ioos:station:USF.COMPS:TAR:1,2010-02-01T14:12:00Z,28.1560,-82.7580,13.05,1111122 
COMPS,ioos:station:USF.COMPS:TAR:1,2010-02-01T14:18:00Z,28.1560,-82.7580,13.08,1111122 
COMPS,ioos:station:USF.COMPS:TAR:1,2010-02-01T14:24:00Z,28.1560,-82.7580,13.14,1111122 
COMPS,ioos:station:USF.COMPS:TAR:1,2010-02-01T14:30:00Z,28.1560,-82.7580,13.31,1111122 
COMPS,ioos:station:USF.COMPS:TAR:1,2010-02-01T14:36:00Z,28.1560,-82.7580,13.33,1111122 
COMPS,ioos:station:USF.COMPS:TAR:1,2010-02-01T14:42:00Z,28.1560,-82.7580,13.36,1111122 
COMPS,ioos:station:USF.COMPS:TAR:1,2010-02-01T14:48:00Z,28.1560,-82.7580,13.34,1111122 
COMPS,ioos:station:USF.COMPS:TAR:1,2010-02-01T14:54:00Z,28.1560,-82.7580,13.35,1111122 
COMPS,ioos:station:USF.COMPS:TAR:1,2010-02-01T15:00:00Z,28.1560,-82.7580,13.16,1111122 
COMPS,ioos:station:USF.COMPS:TAR:1,2010-02-01T15:06:00Z,28.1560,-82.7580,13.24,1111122 
COMPS,ioos:station:USF.COMPS:TAR:1,2010-02-01T15:12:00Z,28.1560,-82.7580,13.15,1111122 
COMPS,ioos:station:USF.COMPS:TAR:1,2010-02-01T15:18:00Z,28.1560,-82.7580,13.0,1111122 
COMPS,ioos:station:USF.COMPS:TAR:1,2010-02-01T15:24:00Z,28.1560,-82.7580,12.97,1111122 
COMPS,ioos:station:USF.COMPS:TAR:1,2010-02-01T15:30:00Z,28.1560,-82.7580,12.95,1111122 
COMPS,ioos:station:USF.COMPS:TAR:1,2010-02-01T15:36:00Z,28.1560,-82.7580,12.9,1111122 
COMPS,ioos:station:USF.COMPS:TAR:1,2010-02-01T15:42:00Z,28.1560,-82.7580,12.98,1111122 
COMPS,ioos:station:USF.COMPS:TAR:1,2010-02-01T15:48:00Z,28.1560,-82.7580,13.04,1111122 
COMPS,ioos:station:USF.COMPS:TAR:1,2010-02-01T15:54:00Z,28.1560,-82.7580,13.04,1111122 
COMPS,ioos:station:USF.COMPS:TAR:1,2010-02-01T16:00:00Z,28.1560,-82.7580,13.04,1111122 
COMPS,ioos:station:USF.COMPS:TAR:1,2010-02-01T16:06:00Z,28.1560,-82.7580,13.06,1111122 
COMPS,ioos:station:USF.COMPS:TAR:1,2010-02-01T16:12:00Z,28.1560,-82.7580,13.17,1111122 
COMPS,ioos:station:USF.COMPS:TAR:1,2010-02-01T16:18:00Z,28.1560,-82.7580,13.22,1111122 
COMPS,ioos:station:USF.COMPS:TAR:1,2010-02-01T16:24:00Z,28.1560,-82.7580,13.36,1111122 
COMPS,ioos:station:USF.COMPS:TAR:1,2010-02-01T16:30:00Z,28.1560,-82.7580,13.37,1111122 
COMPS,ioos:station:USF.COMPS:TAR:1,2010-02-01T16:36:00Z,28.1560,-82.7580,13.47,1111122 
COMPS,ioos:station:USF.COMPS:TAR:1,2010-02-01T16:42:00Z,28.1560,-82.7580,13.63,1111122 
COMPS,ioos:station:USF.COMPS:TAR:1,2010-02-01T16:48:00Z,28.1560,-82.7580,13.79,1111122 
COMPS,ioos:station:USF.COMPS:TAR:1,2010-02-01T16:54:00Z,28.1560,-82.7580,13.87,1111122 
COMPS,ioos:station:USF.COMPS:TAR:1,2010-02-01T17:00:00Z,28.1560,-82.7580,14.02,1111122 
COMPS,ioos:station:USF.COMPS:TAR:1,2010-02-01T17:06:00Z,28.1560,-82.7580,14.09,1111122 
COMPS,ioos:station:USF.COMPS:TAR:1,2010-02-01T17:12:00Z,28.1560,-82.7580,14.2,1111122 
COMPS,ioos:station:USF.COMPS:TAR:1,2010-02-01T17:18:00Z,28.1560,-82.7580,14.34,1111122 
COMPS,ioos:station:USF.COMPS:TAR:1,2010-02-01T17:24:00Z,28.1560,-82.7580,14.75,1111122 
COMPS,ioos:station:USF.COMPS:TAR:1,2010-02-01T17:30:00Z,28.1560,-82.7580,14.67,1111122 
COMPS,ioos:station:USF.COMPS:TAR:1,2010-02-01T17:36:00Z,28.1560,-82.7580,14.8,1111122 
COMPS,ioos:station:USF.COMPS:TAR:1,2010-02-01T17:42:00Z,28.1560,-82.7580,14.9,1111122 
COMPS,ioos:station:USF.COMPS:TAR:1,2010-02-01T17:48:00Z,28.1560,-82.7580,14.87,1111122 
COMPS,ioos:station:USF.COMPS:TAR:1,2010-02-01T17:54:00Z,28.1560,-82.7580,14.89,1111122 
COMPS,ioos:station:USF.COMPS:TAR:1,2010-02-01T18:00:00Z,28.1560,-82.7580,14.97,1111122 
COMPS,ioos:station:USF.COMPS:TAR:1,2010-02-01T18:06:00Z,28.1560,-82.7580,14.94,1111122 
COMPS,ioos:station:USF.COMPS:TAR:1,2010-02-01T18:12:00Z,28.1560,-82.7580,14.97,1111122 
COMPS,ioos:station:USF.COMPS:TAR:1,2010-02-01T18:18:00Z,28.1560,-82.7580,14.85,1111122 
COMPS,ioos:station:USF.COMPS:TAR:1,2010-02-01T18:24:00Z,28.1560,-82.7580,14.88,1111122 
COMPS,ioos:station:USF.COMPS:TAR:1,2010-02-01T18:30:00Z,28.1560,-82.7580,14.86,1111122 
COMPS,ioos:station:USF.COMPS:TAR:1,2010-02-01T18:36:00Z,28.1560,-82.7580,14.84,1111122 
COMPS,ioos:station:USF.COMPS:TAR:1,2010-02-01T18:42:00Z,28.1560,-82.7580,14.86,1111122 
COMPS,ioos:station:USF.COMPS:TAR:1,2010-02-01T18:48:00Z,28.1560,-82.7580,14.94,1111122 
COMPS,ioos:station:USF.COMPS:TAR:1,2010-02-01T18:54:00Z,28.1560,-82.7580,14.86,1111122 
COMPS,ioos:station:USF.COMPS:TAR:1,2010-02-01T19:00:00Z,28.1560,-82.7580,14.93,1111122 
COMPS,ioos:station:USF.COMPS:TAR:1,2010-02-01T19:06:00Z,28.1560,-82.7580,14.99,1111122 
COMPS,ioos:station:USF.COMPS:TAR:1,2010-02-01T19:12:00Z,28.1560,-82.7580,14.97,1111122 
COMPS,ioos:station:USF.COMPS:TAR:1,2010-02-01T19:18:00Z,28.1560,-82.7580,15.05,1111122 
COMPS,ioos:station:USF.COMPS:TAR:1,2010-02-01T19:24:00Z,28.1560,-82.7580,15.17,1111122 
COMPS,ioos:station:USF.COMPS:TAR:1,2010-02-01T19:30:00Z,28.1560,-82.7580,15.13,1111122 
COMPS,ioos:station:USF.COMPS:TAR:1,2010-02-01T19:36:00Z,28.1560,-82.7580,15.19,1111122 
COMPS,ioos:station:USF.COMPS:TAR:1,2010-02-01T19:42:00Z,28.1560,-82.7580,15.21,1111122 
COMPS,ioos:station:USF.COMPS:TAR:1,2010-02-01T19:48:00Z,28.1560,-82.7580,15.21,1111122 
COMPS,ioos:station:USF.COMPS:TAR:1,2010-02-01T19:54:00Z,28.1560,-82.7580,15.21,1111122 
COMPS,ioos:station:USF.COMPS:TAR:1,2010-02-01T20:00:00Z,28.1560,-82.7580,15.22,1111122 
COMPS,ioos:station:USF.COMPS:TAR:1,2010-02-01T20:06:00Z,28.1560,-82.7580,15.32,1111122 
COMPS,ioos:station:USF.COMPS:TAR:1,2010-02-01T20:12:00Z,28.1560,-82.7580,15.35,1111122 
COMPS,ioos:station:USF.COMPS:TAR:1,2010-02-01T20:18:00Z,28.1560,-82.7580,15.45,1111122 
COMPS,ioos:station:USF.COMPS:TAR:1,2010-02-01T20:24:00Z,28.1560,-82.7580,15.6,1111122 
COMPS,ioos:station:USF.COMPS:TAR:1,2010-02-01T20:30:00Z,28.1560,-82.7580,15.55,1111122 
COMPS,ioos:station:USF.COMPS:TAR:1,2010-02-01T20:36:00Z,28.1560,-82.7580,15.61,1111122 
COMPS,ioos:station:USF.COMPS:TAR:1,2010-02-01T20:42:00Z,28.1560,-82.7580,15.87,1111122 
COMPS,ioos:station:USF.COMPS:TAR:1,2010-02-01T20:48:00Z,28.1560,-82.7580,15.87,1111122 
COMPS,ioos:station:USF.COMPS:TAR:1,2010-02-01T20:54:00Z,28.1560,-82.7580,15.82,1111122 
COMPS,ioos:station:USF.COMPS:TAR:1,2010-02-01T21:00:00Z,28.1560,-82.7580,15.83,1111122 
COMPS,ioos:station:USF.COMPS:TAR:1,2010-02-01T21:06:00Z,28.1560,-82.7580,15.81,1111122 
COMPS,ioos:station:USF.COMPS:TAR:1,2010-02-01T21:12:00Z,28.1560,-82.7580,15.91,1111122 
COMPS,ioos:station:USF.COMPS:TAR:1,2010-02-01T21:18:00Z,28.1560,-82.7580,15.96,1111122 
COMPS,ioos:station:USF.COMPS:TAR:1,2010-02-01T21:24:00Z,28.1560,-82.7580,16.02,1111122 
COMPS,ioos:station:USF.COMPS:TAR:1,2010-02-01T21:30:00Z,28.1560,-82.7580,15.89,1111122 
COMPS,ioos:station:USF.COMPS:TAR:1,2010-02-01T21:36:00Z,28.1560,-82.7580,15.9,1111122 
COMPS,ioos:station:USF.COMPS:TAR:1,2010-02-01T21:42:00Z,28.1560,-82.7580,15.89,1111122 
COMPS,ioos:station:USF.COMPS:TAR:1,2010-02-01T21:48:00Z,28.1560,-82.7580,15.96,1111122 
COMPS,ioos:station:USF.COMPS:TAR:1,2010-02-01T21:54:00Z,28.1560,-82.7580,15.99,1111122 
COMPS,ioos:station:USF.COMPS:TAR:1,2010-02-01T22:00:00Z,28.1560,-82.7580,16.03,1111122 
COMPS,ioos:station:USF.COMPS:TAR:1,2010-02-01T22:06:00Z,28.1560,-82.7580,16.03,1111122 
COMPS,ioos:station:USF.COMPS:TAR:1,2010-02-01T22:12:00Z,28.1560,-82.7580,16.03,1111122 
COMPS,ioos:station:USF.COMPS:TAR:1,2010-02-01T22:18:00Z,28.1560,-82.7580,16.03,1111122 
COMPS,ioos:station:USF.COMPS:TAR:1,2010-02-01T22:24:00Z,28.1560,-82.7580,16.25,1111122 
COMPS,ioos:station:USF.COMPS:TAR:1,2010-02-01T22:30:00Z,28.1560,-82.7580,16.16,1111122 
COMPS,ioos:station:USF.COMPS:TAR:1,2010-02-01T22:36:00Z,28.1560,-82.7580,16.17,1111122 
COMPS,ioos:station:USF.COMPS:TAR:1,2010-02-01T22:42:00Z,28.1560,-82.7580,16.25,1111122 
COMPS,ioos:station:USF.COMPS:TAR:1,2010-02-01T22:48:00Z,28.1560,-82.7580,16.3,1111122 
COMPS,ioos:station:USF.COMPS:TAR:1,2010-02-01T22:54:00Z,28.1560,-82.7580,16.3,1111122 
COMPS,ioos:station:USF.COMPS:TAR:1,2010-02-01T23:00:00Z,28.1560,-82.7580,16.3,1111122 
COMPS,ioos:station:USF.COMPS:TAR:1,2010-02-01T23:06:00Z,28.1560,-82.7580,16.32,1111122 
COMPS,ioos:station:USF.COMPS:TAR:1,2010-02-01T23:12:00Z,28.1560,-82.7580,16.32,1111122 
COMPS,ioos:station:USF.COMPS:TAR:1,2010-02-01T23:18:00Z,28.1560,-82.7580,16.31,1111122 
COMPS,ioos:station:USF.COMPS:TAR:1,2010-02-01T23:24:00Z,28.1560,-82.7580,16.49,1111122 
COMPS,ioos:station:USF.COMPS:TAR:1,2010-02-01T23:30:00Z,28.1560,-82.7580,16.44,1111122 
COMPS,ioos:station:USF.COMPS:TAR:1,2010-02-01T23:36:00Z,28.1560,-82.7580,16.5,1111122 
COMPS,ioos:station:USF.COMPS:TAR:1,2010-02-01T23:42:00Z,28.1560,-82.7580,16.55,1111122 
COMPS,ioos:station:USF.COMPS:TAR:1,2010-02-01T23:48:00Z,28.1560,-82.7580,16.57,1111122 
COMPS,ioos:station:USF.COMPS:TAR:1,2010-02-01T23:54:00Z,28.1560,-82.7580,16.61,1111122 
COMPS,ioos:station:USF.COMPS:TAR:1,2010-02-02T00:00:00Z,28.1560,-82.7580,16.71,1111122 
COMPS,ioos:station:USF.COMPS:TAR:1,2010-02-02T00:06:00Z,28.1560,-82.7580,16.74,1111122 
COMPS,ioos:station:USF.COMPS:TAR:1,2010-02-02T00:12:00Z,28.1560,-82.7580,16.78,1111122 
COMPS,ioos:station:USF.COMPS:TAR:1,2010-02-02T00:18:00Z,28.1560,-82.7580,16.71,1111122 
COMPS,ioos:station:USF.COMPS:TAR:1,2010-02-02T00:24:00Z,28.1560,-82.7580,16.84,1111122 
COMPS,ioos:station:USF.COMPS:TAR:1,2010-02-02T00:30:00Z,28.1560,-82.7580,16.66,1111122 
COMPS,ioos:station:USF.COMPS:TAR:1,2010-02-02T00:36:00Z,28.1560,-82.7580,16.71,1111122 
COMPS,ioos:station:USF.COMPS:TAR:1,2010-02-02T00:42:00Z,28.1560,-82.7580,16.71,1111122 
COMPS,ioos:station:USF.COMPS:TAR:1,2010-02-02T00:48:00Z,28.1560,-82.7580,16.71,1111122 
COMPS,ioos:station:USF.COMPS:TAR:1,2010-02-02T00:54:00Z,28.1560,-82.7580,16.71,1111122 
COMPS,ioos:station:USF.COMPS:TAR:1,2010-02-02T01:00:00Z,28.1560,-82.7580,16.71,1111122 
COMPS,ioos:station:USF.COMPS:TAR:1,2010-02-02T01:06:00Z,28.1560,-82.7580,16.71,1111122 
COMPS,ioos:station:USF.COMPS:TAR:1,2010-02-02T01:12:00Z,28.1560,-82.7580,16.71,1111122 
COMPS,ioos:station:USF.COMPS:TAR:1,2010-02-02T01:18:00Z,28.1560,-82.7580,16.71,1111122 
COMPS,ioos:station:USF.COMPS:TAR:1,2010-02-02T01:24:00Z,28.1560,-82.7580,16.81,1111122 
COMPS,ioos:station:USF.COMPS:TAR:1,2010-02-02T01:30:00Z,28.1560,-82.7580,16.72,1111122 
COMPS,ioos:station:USF.COMPS:TAR:1,2010-02-02T01:36:00Z,28.1560,-82.7580,16.71,1111122 
COMPS,ioos:station:USF.COMPS:TAR:1,2010-02-02T01:42:00Z,28.1560,-82.7580,16.71,1111122 
COMPS,ioos:station:USF.COMPS:TAR:1,2010-02-02T01:48:00Z,28.1560,-82.7580,16.74,1111122 
COMPS,ioos:station:USF.COMPS:TAR:1,2010-02-02T01:54:00Z,28.1560,-82.7580,16.81,1111122 
COMPS,ioos:station:USF.COMPS:TAR:1,2010-02-02T02:00:00Z,28.1560,-82.7580,16.83,1111122 
COMPS,ioos:station:USF.COMPS:TAR:1,2010-02-02T02:06:00Z,28.1560,-82.7580,16.84,1111122 
COMPS,ioos:station:USF.COMPS:TAR:1,2010-02-02T02:12:00Z,28.1560,-82.7580,16.84,1111122 
COMPS,ioos:station:USF.COMPS:TAR:1,2010-02-02T02:18:00Z,28.1560,-82.7580,16.84,1111122 
COMPS,ioos:station:USF.COMPS:TAR:1,2010-02-02T02:24:00Z,28.1560,-82.7580,16.91,1111122 
COMPS,ioos:station:USF.COMPS:TAR:1,2010-02-02T02:30:00Z,28.1560,-82.7580,16.86,1111122 
COMPS,ioos:station:USF.COMPS:TAR:1,2010-02-02T02:36:00Z,28.1560,-82.7580,16.9,1111122 
COMPS,ioos:station:USF.COMPS:TAR:1,2010-02-02T02:42:00Z,28.1560,-82.7580,16.98,1111122 
COMPS,ioos:station:USF.COMPS:TAR:1,2010-02-02T02:48:00Z,28.1560,-82.7580,17.01,1111122 
COMPS,ioos:station:USF.COMPS:TAR:1,2010-02-02T02:54:00Z,28.1560,-82.7580,17.16,1111122 
COMPS,ioos:station:USF.COMPS:TAR:1,2010-02-02T03:00:00Z,28.1560,-82.7580,17.18,1111122 
COMPS,ioos:station:USF.COMPS:TAR:1,2010-02-02T03:06:00Z,28.1560,-82.7580,17.21,1111122 
COMPS,ioos:station:USF.COMPS:TAR:1,2010-02-02T03:12:00Z,28.1560,-82.7580,17.22,1111122 